Regional Weather Roundup
Issued by NWS Green Bay, WI

Home | Current Version | Previous Version | Graphics & Text | Print | Product List | Glossary Off
Versions: 1 2 3 4 5 6 7 8 9 10 11 12 13 14 15 16 17 18 19 20 21 22 23 24 25 26 27 28 29 30 31 32 33 34 35 36 37 38 39 40 41 42 43 44 45 46 47 48 49 50

000
ASUS43 KGRB 270610
RWRGRB

NORTH-CENTRAL AND NORTHEAST WISCONSIN REGIONAL WEATHER ROUNDUP
NATIONAL WEATHER SERVICE GREEN BAY WI
1200 AM CST FRI FEB 27 2015

WIZ005-009-010>012-018-019-270700-
NORTH CENTRAL WISCONSIN

CITY           SKY/WX    TMP DP  RH WIND       PRES   REMARKS
IRONWOOD       CLEAR     -8  -8 100 SW5       30.32R WCI -19
MANITOWISH WTR CLEAR    -15 -20  77 CALM      30.30S
ARBOR VITAE    CLEAR     -9 -15  72 CALM      30.30S
EAGLE RIVER    CLEAR    -15 -21  74 CALM      30.29S
LAND O LAKES   CLEAR    -23 -29  74 CALM      30.29S
RHINELANDER    CLEAR    -11 -17  75 W7        30.30S WCI -26
PHILLIPS       CLEAR    -15 -20  78 CALM      30.33S
ANTIGO         CLEAR    -10 -16  75 W5        30.32S WCI -21
TOMAHAWK       CLEAR    -18 -24  76 CALM      30.33S
MERRILL        CLEAR    -11 -17  75 CALM      30.35R
$$

WIZ013-073-270700-
NORTHEAST WISCONSIN

CITY           SKY/WX    TMP DP  RH WIND       PRES   REMARKS
IRON MOUNTAIN  CLEAR    -10 -17  71 CALM      30.31R
MARINETTE      CLEAR     -6 -11  77 CALM      30.39S
OCONTO         CLEAR     -9 -13  80 CALM      30.41S
$$

WIZ017-030-035>037-045-270700-
CENTRAL WISCONSIN

CITY           SKY/WX    TMP DP  RH WIND       PRES   REMARKS
MEDFORD        CLEAR     -9 -16  73 W3        30.34S
WAUSAU         PTCLDY    -1 -11  62 NW5       30.36S WCI -11
MOSINEE        PTCLDY     0  -9  65 NW5       30.38R WCI -10
MARSHFIELD     CLEAR     -3 -12  65 W6        30.38S WCI -15
WISC RAPIDS    CLEAR     -1 -13  56 NW6       30.42R WCI -13
STEVENS POINT  CLEAR     -3 -12  65 CALM      30.40R
WAUPACA        CLEAR      3  -8  58 W3        30.42R
SHAWANO        CLEAR      1  -9  62 W3        30.41R
CLINTONVILLE   CLEAR      1  -9  60 NW6       30.40R WCI -10
$$

WIZ038-039-048-051-270700-
FOX VALLEY

CITY           SKY/WX    TMP DP  RH WIND       PRES   REMARKS
NWS GREEN BAY  CLEAR      2  -7  66 NW5       30.41R WCI  -8
APPLETON       CLEAR      1  -9  60 W10       30.40R WCI -14
OSHKOSH        CLEAR      2  -8  63 W6        30.40R WCI  -9
FOND DU LAC    PTCLDY     2  -8  63 W9        30.41R WCI -13
$$

WIZ022-050-052-270700-
EAST CENTRAL WISCONSIN

CITY           SKY/WX    TMP DP  RH WIND       PRES   REMARKS
STURGEON BAY   CLEAR      0  -9  65 CALM      30.41R
MANITOWOC      CLEAR      3  -5  69 W8        30.40S WCI -10
SHEBOYGAN      CLEAR      2  -7  66 W7        30.40S WCI -11
$$

LMZ563-521-522-541>543-270700-
LAKESHORE

STATION/POSITION TIME  TEMP    WIND        PRES    VSBY  WAVE
                       AIR SEA DIR/SP/G                  HT/PER
                 (UTC) (F)     (DEG/KT/KT) (MB)    (MI)  (FT/S)
SHEBOYGAN LKSHOR 0600    6     280/ 12/ 14 1031.5R
KEWAUNEE LKSHORE 0600    0     300/  6/  7 1028.3R
NORTHPORT PIER   0600    1     330/  1/  2 1029.1S
CHAMBERS ISLAND  0600    0     270/  3/  5 1029.1S
MENOMINEE LKSHOR 0600    3     290/  4     1029.9S
$$


USA.gov is the U.S. government's official web portal to all federal, state and local government web resources and services.